Terminal Aerodrome Forecast
Issued by NWS Amarillo, TX

Home | Current Version | Previous Version | Text Only | Print | Product List | Glossary On
Versions: 1 2 3 4 5 6 7 8 9 10 11 12 13 14 15 16 17 18 19 20 21 22
000
FTUS44 KAMA 280527
TAFAMA
TAF
KAMA 280527Z 2806/2906 18018KT P6SM SCT200 WS010/24050KT
     FM281300 20016G26KT P6SM FEW200
     FM281600 22016KT P6SM SKC
     FM290000 18019G26KT P6SM SKC=

USA.gov is the U.S. government's official web portal to all federal, state and local government web resources and services.